Location: Rounton
(54.4000°N, 1.3500°W)
Time: 02:20:38
(UTC+00:00)

Transit 4A - Pass Details

Date: 08 December 2021
Orbit: 864 x 981 km, 66.8° (Epoch: 19 January)

Event Time Altitude Azimuth Distance (km) Brightness Sun altitude
Rises 18:57:31 0° 214° (SSW) 3,469 11.4 -27.0°
Reaches altitude 10° 18:59:57 10° 213° (SSW) 2,546 10.6 -27.3°
Enters shadow 19:05:36 77° 158° (SSE) 934 7.7 -28.2°
